[[{"header":{"parameterUnit":"m.s-1","parameterCategory":1,"la1":30.2991,"la2":30.254,"lo1":-89.0895,"lo2":-89.0444,"dy":0.0017,"dx":0.0017,"nx":28,"ny":28,"refTime":"2023-08-01T09:00:00:Z","depth":0,"parameterNumber":2,"parameterNumberName":"U-component_of_WINDS"},"data":[0,0,0,0,0,0,0,0,0,0,0,0,0,0,0,0,0,0,0,0,0,0,0,0,0,0,0,0,0,0,0,0,0,0,0,0,0,0,0,0,0,0,0,0,0,0,0,0,0,0,0,0,0,0,0,0,0,0,0.352,0.3521,0,0.3605,0.3606,0.3607,0.3618,0.3617,0.3617,0.3616,0.3708,0.3711,0.3714,0,0,0,0,0,0,0,0,0,0,0,0,0,0.337,0.3373,0.352,0.3521,0.3522,0.3605,0.3606,0.3607,0.3618,0.3617,0.3616,0.3615,0.3707,0.371,0.3714,0,0,0,0,0,0,0,0,0,0,0,0,0,0.3443,0.3373,0.3519,0.3537,0.3539,0.3605,0.3606,0.3608,0.3619,0.3617,0.3616,0.3615,0.3705,0.371,0.3715,0.377,0,0,0.373,0.3732,0,0,0,0,0,0,0,0,0.3439,0.3449,0.3533,0.3536,0.3539,0.36,0.3587,0.3662,0.3619,0.3589,0.3616,0.3614,0.3673,0.368,0.3699,0.3774,0.3778,0.373,0.3733,0.3735,0.3736,0,0,0,0,0,0,0,0.3434,0.3445,0.3554,0.3535,0.3538,0.3542,0.3551,0.3601,0.3637,0.3591,0.3592,0.3602,0.3674,0.3695,0.3702,0.3779,0.373,0.3734,0.3737,0.3739,0.3905,0.3906,0,0,0,0,0,0,0.3425,0.3441,0.3551,0.3556,0.3485,0.3546,0.3556,0.3581,0.3636,0.3644,0.3603,0.3602,0.3687,0.3696,0.3705,0.3774,0.3735,0.374,0.3742,0.3903,0.3905,0.3907,0,0,0,0,0,0,0.3422,0.3435,0.3547,0.3499,0.3513,0.355,0.3578,0.3584,0.3604,0.3645,0.3652,0.3617,0.3686,0.3698,0.3754,0.3777,0.3742,0.3746,0.3902,0.3904,0.3906,0.3912,0,0,0,0,0,0,0.3417,0.3433,0.3454,0.3499,0.3516,0.3593,0.358,0.3586,0.3612,0.3612,0.366,0.3667,0.3686,0.3746,0.3758,0.3783,0.375,0.39,0.3903,0.3905,0.391,0.3914,0.3918,0,0,0,0,0,0.3412,0.3453,0.3455,0.3468,0.3542,0.3595,0.3604,0.3625,0.3614,0.3635,0.3662,0.3666,0.3772,0.3752,0.3766,0.3792,0.3898,0.3902,0.3905,0.3908,0.3913,0.3918,0,0,0,0,0,0,0.3411,0.3459,0.3462,0.3518,0.3552,0.3596,0.3624,0.3629,0.3668,0.3667,0.3691,0.3702,0.3757,0.378,0.3756,0.3849,0.3835,0.3841,0.3832,0.3837,0.3841,0.3835,0.3754,0,0,0,0,0,0.3417,0.3454,0.3495,0.3541,0.3557,0.3588,0.3611,0.3624,0.3661,0.3676,0.3706,0.3743,0.3785,0.3812,0.3853,0.3913,0.3924,0.3938,0.3942,0.3945,0.3951,0.3985,0.3992,0.3918,0.3918,0.3918,0,0,0.343,0.3461,0.3484,0.3541,0.3569,0.3609,0.36,0.3642,0.3673,0.3683,0.3737,0.376,0.3803,0.3861,0.3888,0.3882,0.3973,0.3949,0.3951,0.3956,0.399,0.3997,0.4003,0.392,0.392,0.3919,0,0,0.3475,0.3501,0.3543,0.3571,0.3612,0.3632,0.3642,0.3686,0.3701,0.3756,0.3764,0.3801,0.3873,0.3903,0.3928,0.3984,0.399,0.3997,0.4018,0.4052,0.4058,0.4063,0.4085,0.4092,0.4002,0.4002,0.4002,0,0.3487,0.3546,0.3564,0.3606,0.3632,0.3641,0.3684,0.3711,0.3764,0.3783,0.3774,0.3864,0.3894,0.396,0.3973,0.3993,0.4006,0.3992,0.4055,0.4061,0.4066,0.4087,0.4095,0.4003,0.4003,0.4002,0.4002,0,0.356,0.36,0.3629,0.3679,0.3708,0.375,0.3776,0.3803,0.3813,0.3834,0.389,0.3925,0.3974,0.399,0.4001,0.4058,0.4053,0.405,0.4036,0.4073,0.4094,0.4102,0.4004,0.4003,0.4003,0.4003,0,0,0.3608,0.3666,0.3677,0.37,0.3746,0.3779,0.3822,0.3868,0.3892,0.3928,0.3966,0.4026,0.4023,0.4052,0.4065,0.4094,0.4139,0.4088,0.4089,0.4097,0.4206,0.421,0.4219,0.4142,0.4143,0.4145,0.4203,0,0.366,0.3736,0.3753,0.3819,0.3858,0.3867,0.3905,0.3938,0.3959,0.3996,0.4019,0.4062,0.4054,0.4071,0.41,0.4127,0.4161,0.4123,0.418,0.4182,0.417,0.4229,0.4233,0.4287,0.4211,0.4212,0.4213,0,0.3731,0.3767,0.3837,0.3878,0.3895,0.3929,0.3973,0.4007,0.4046,0.4059,0.409,0.4101,0.4148,0.413,0.4196,0.417,0.4194,0.4211,0.4213,0.4221,0.4201,0.424,0.4304,0.4313,0.4226,0.4225,0.4224,0,0.3761,0.3828,0.3878,0.3897,0.3946,0.397,0.3992,0.4029,0.4056,0.4094,0.4112,0.4156,0.4181,0.4216,0.4239,0.4223,0.4304,0.4288,0.4318,0.4317,0.4336,0.4335,0.4406,0.4348,0.4348,0.4348,0.4348,0,0.3818,0.3861,0.3892,0.3924,0.3972,0.3992,0.404,0.4062,0.4095,0.4132,0.4142,0.4177,0.4204,0.4243,0.4261,0.4314,0.4325,0.4338,0.4343,0.4339,0.4337,0.4356,0.4354,0.435,0.435,0.4349,0.4349,0,0.3862,0.3884,0.394,0.3981,0.3992,0.4026,0.4063,0.4094,0.4114,0.4161,0.4173,0.4206,0.4253,0.4278,0.4337,0.4349,0.4409,0.4411,0.4396,0.4398,0.4428,0.4425,0.4516,0.4529,0.446,0.4461,0.4461,0,0.3898,0.393,0.3975,0.3999,0.4021,0.4061,0.4088,0.4108,0.4136,0.4182,0.4209,0.4255,0.4294,0.4368,0.4398,0.4443,0.4448,0.4476,0.4455,0.4449,0.445,0.4449,0.4453,0.4481,0.4481,0.4482,0.4482,0,0.396,0.3969,0.4006,0.4048,0.4079,0.4114,0.4147,0.4167,0.4194,0.4225,0.4272,0.4301,0.4361,0.4408,0.4455,0.4479,0.4486,0.4488,0.4498,0.4495,0.4485,0.4493,0.4408,0.4487,0.4486,0.4486,0.4486,0.4485,0.4002,0.4032,0.4068,0.4109,0.4136,0.4168,0.42,0.4223,0.4262,0.4311,0.4321,0.437,0.4409,0.4473,0.4498,0.4539,0.4534,0.4547,0.4551,0.4555,0.4557,0.4477,0.4547,0.4547,0.4547,0.4547,0.4547,0,0.4067,0.409,0.4127,0.4174,0.4207,0.4207,0.4245,0.4273,0.4316,0.435,0.4388,0.4442,0.4487,0.452,0.4567,0.4593,0.4598,0.4605,0.4604,0.461,0.4558,0.4546,0.4601,0.4601,0.4601,0.4601,0.4601,0.4601,0.4104,0.4155,0.4168,0.4233,0.4256,0.4304,0.4325,0.4355,0.4382,0.4442,0.4479,0.4499,0.4534,0.4583,0.4625,0.4634,0.4652,0.4659,0.4669,0.4619,0.4614,0.4608,0.4597,0.4662,0.4662,0.4718,0.4718,0.4719]},{"header":{"parameterUnit":"m.s-1","parameterCategory":1,"la1":30.2991,"la2":30.254,"lo1":-89.0895,"lo2":-89.0444,"dy":0.0017,"dx":0.0017,"nx":28,"ny":28,"refTime":"2023-08-01T09:00:00:Z","depth":0,"parameterNumber":3,"parameterNumberName":"V-component_of_WINDS"},"data":[0,0,0,0,0,0,0,0,0,0,0,0,0,0,0,0,0,0,0,0,0,0,0,0,0,0,0,0,0,0,0,0,0,0,0,0,0,0,0,0,0,0,0,0,0,0,0,0,0,0,0,0,0,0,0,0,0,0,-1.952,-1.9521,0,-1.9614,-1.9615,-1.9616,-1.9661,-1.9661,-1.9661,-1.9661,-1.9755,-1.9757,-1.976,0,0,0,0,0,0,0,0,0,0,0,0,0,-1.9379,-1.9382,-1.952,-1.9521,-1.9523,-1.9614,-1.9615,-1.9616,-1.9661,-1.9661,-1.9661,-1.9661,-1.9754,-1.9757,-1.976,0,0,0,0,0,0,0,0,0,0,0,0,0,-1.9453,-1.9382,-1.952,-1.9556,-1.956,-1.9613,-1.9615,-1.9616,-1.9661,-1.9661,-1.9661,-1.9661,-1.9753,-1.9757,-1.9761,-1.9784,0,0,-1.9772,-1.9774,0,0,0,0,0,0,0,0,-1.9449,-1.9458,-1.955,-1.9554,-1.9558,-1.9626,-1.96,-1.9673,-1.9661,-1.9623,-1.9661,-1.9661,-1.9712,-1.9719,-1.9737,-1.9789,-1.9793,-1.9772,-1.9775,-1.9776,-1.9777,0,0,0,0,0,0,0,-1.9444,-1.9455,-1.9557,-1.9551,-1.9556,-1.9567,-1.9577,-1.9614,-1.9666,-1.9626,-1.963,-1.964,-1.9714,-1.9733,-1.9739,-1.9794,-1.9772,-1.9776,-1.9778,-1.9779,-1.9871,-1.9871,0,0,0,0,0,0,-1.9433,-1.945,-1.9554,-1.956,-1.9503,-1.957,-1.9581,-1.9604,-1.9666,-1.9675,-1.964,-1.9642,-1.9726,-1.9735,-1.9743,-1.9775,-1.9776,-1.978,-1.9782,-1.9871,-1.9871,-1.9871,0,0,0,0,0,0,-1.943,-1.9442,-1.955,-1.9506,-1.9521,-1.9572,-1.9597,-1.9606,-1.9625,-1.9677,-1.9686,-1.9649,-1.9727,-1.9737,-1.9774,-1.9779,-1.9782,-1.9785,-1.9871,-1.9871,-1.9871,-1.9839,0,0,0,0,0,0,-1.9426,-1.9441,-1.9451,-1.9506,-1.9523,-1.9581,-1.9598,-1.9608,-1.9631,-1.9635,-1.9688,-1.9697,-1.9727,-1.9768,-1.9778,-1.9784,-1.9788,-1.987,-1.9871,-1.9871,-1.984,-1.9839,-1.9837,0,0,0,0,0,-1.942,-1.9437,-1.9451,-1.9463,-1.9537,-1.9581,-1.959,-1.9626,-1.9631,-1.9642,-1.9675,-1.9695,-1.9777,-1.9771,-1.9783,-1.979,-1.987,-1.9871,-1.9871,-1.9841,-1.9839,-1.9837,0,0,0,0,0,0,-1.9381,-1.9445,-1.9461,-1.9496,-1.9533,-1.9588,-1.9602,-1.9623,-1.9658,-1.9659,-1.9701,-1.9713,-1.9746,-1.9772,-1.9765,-1.9817,-1.9825,-1.9828,-1.9799,-1.9797,-1.9796,-1.9789,-1.9791,0,0,0,0,0,-1.9376,-1.9407,-1.9462,-1.9488,-1.9505,-1.9551,-1.9571,-1.9595,-1.9635,-1.965,-1.9686,-1.9723,-1.9757,-1.9778,-1.9812,-1.9844,-1.9856,-1.9855,-1.9853,-1.9852,-1.9853,-1.9872,-1.9872,-1.9872,-1.9872,-1.9872,0,0,-1.9367,-1.9406,-1.9423,-1.9481,-1.9512,-1.9543,-1.9563,-1.9595,-1.9618,-1.9655,-1.9692,-1.9719,-1.9763,-1.9797,-1.9814,-1.982,-1.9856,-1.9852,-1.985,-1.9853,-1.9873,-1.9873,-1.9873,-1.9873,-1.9872,-1.9872,0,0,-1.9366,-1.9399,-1.9424,-1.9455,-1.9502,-1.9532,-1.9538,-1.9591,-1.961,-1.9648,-1.9677,-1.9704,-1.9762,-1.9792,-1.9815,-1.9825,-1.9845,-1.9835,-1.9827,-1.9845,-1.9845,-1.9845,-1.9849,-1.985,-1.9837,-1.9837,-1.9837,0,-1.9348,-1.9397,-1.9435,-1.9465,-1.9489,-1.9525,-1.9551,-1.9578,-1.9634,-1.9649,-1.9655,-1.9729,-1.976,-1.9802,-1.9805,-1.9822,-1.983,-1.9829,-1.9842,-1.9842,-1.9843,-1.9847,-1.9849,-1.9835,-1.9835,-1.9835,-1.9836,0,-1.9373,-1.9406,-1.942,-1.9474,-1.95,-1.9528,-1.957,-1.9591,-1.9613,-1.9642,-1.968,-1.972,-1.9763,-1.9774,-1.9796,-1.9819,-1.9822,-1.9834,-1.9843,-1.9841,-1.9846,-1.9848,-1.9833,-1.9834,-1.9834,-1.9834,0,0,-1.935,-1.9424,-1.9429,-1.9453,-1.9508,-1.9533,-1.9563,-1.9605,-1.9623,-1.966,-1.9685,-1.9733,-1.9745,-1.9771,-1.9796,-1.9812,-1.9818,-1.9823,-1.9824,-1.9821,-1.9846,-1.9837,-1.9838,-1.9831,-1.9832,-1.9832,-1.9843,0,-1.9356,-1.9411,-1.9446,-1.9487,-1.9518,-1.9551,-1.9577,-1.9613,-1.9641,-1.967,-1.9701,-1.9735,-1.9748,-1.9764,-1.978,-1.9813,-1.9824,-1.9813,-1.9855,-1.9856,-1.9843,-1.9841,-1.9831,-1.9839,-1.9845,-1.9845,-1.9845,0,-1.9372,-1.9409,-1.9452,-1.9503,-1.9518,-1.954,-1.9582,-1.961,-1.9651,-1.967,-1.9699,-1.9725,-1.9757,-1.9763,-1.9808,-1.98,-1.9819,-1.9838,-1.9839,-1.9844,-1.9851,-1.9846,-1.9843,-1.9844,-1.9849,-1.9848,-1.9848,0,-1.9351,-1.9411,-1.9445,-1.9465,-1.9526,-1.954,-1.9566,-1.9607,-1.9631,-1.9667,-1.9683,-1.9722,-1.9743,-1.9773,-1.9808,-1.981,-1.9849,-1.9859,-1.9866,-1.9865,-1.9873,-1.9872,-1.9873,-1.9885,-1.9884,-1.9884,-1.9884,0,-1.9355,-1.938,-1.9437,-1.9458,-1.9487,-1.9527,-1.9555,-1.9583,-1.9619,-1.9646,-1.9677,-1.9702,-1.9747,-1.9777,-1.9804,-1.9837,-1.9846,-1.9863,-1.987,-1.986,-1.9858,-1.9874,-1.9874,-1.9885,-1.9885,-1.9885,-1.9885,0,-1.9337,-1.9375,-1.9415,-1.9469,-1.9483,-1.9502,-1.9548,-1.957,-1.9599,-1.9633,-1.9643,-1.9689,-1.9726,-1.9764,-1.9814,-1.9832,-1.9864,-1.9874,-1.985,-1.9855,-1.986,-1.9859,-1.9871,-1.9874,-1.9883,-1.9883,-1.9883,0,-1.9337,-1.9357,-1.9414,-1.9434,-1.9459,-1.9492,-1.9516,-1.9556,-1.9579,-1.9628,-1.9643,-1.9683,-1.9716,-1.9773,-1.9811,-1.9849,-1.986,-1.9862,-1.9866,-1.9856,-1.9861,-1.9859,-1.9861,-1.986,-1.986,-1.986,-1.9859,0,-1.9333,-1.9351,-1.9385,-1.9426,-1.9454,-1.9488,-1.9522,-1.9537,-1.9584,-1.9609,-1.9647,-1.9673,-1.9724,-1.9762,-1.9805,-1.9831,-1.9853,-1.9858,-1.9861,-1.9852,-1.9838,-1.9846,-1.9847,-1.9857,-1.9857,-1.9858,-1.9858,-1.9858,-1.9324,-1.9344,-1.9387,-1.9424,-1.9454,-1.9486,-1.9509,-1.9542,-1.9575,-1.962,-1.9641,-1.9679,-1.972,-1.978,-1.9805,-1.9835,-1.9842,-1.9847,-1.9848,-1.9849,-1.9847,-1.9833,-1.9843,-1.9843,-1.9844,-1.9844,-1.9844,0,-1.9323,-1.9352,-1.9385,-1.9433,-1.9462,-1.9481,-1.952,-1.9543,-1.9576,-1.9613,-1.9645,-1.9689,-1.9727,-1.9767,-1.9807,-1.9824,-1.9835,-1.9833,-1.9832,-1.9838,-1.9839,-1.9832,-1.9823,-1.9823,-1.9823,-1.9823,-1.9823,-1.9823,-1.9325,-1.936,-1.9383,-1.9433,-1.9462,-1.95,-1.9521,-1.9551,-1.958,-1.9628,-1.966,-1.9686,-1.9724,-1.9767,-1.9803,-1.9814,-1.9827,-1.9822,-1.9836,-1.9836,-1.9838,-1.9839,-1.9833,-1.9825,-1.9825,-1.9833,-1.9833,-1.9833]}]]